Terug naar catalogus

STARLINK-30085

ActiefCommunicatieVLEO
NORAD 56709·PAYLOAD·🇺🇸 United States

Gelanceerd May 19, 2023 vanaf Cape Canaveral Space Force Station

Loading…

Volgende Passages (komende 24 uur)

TLE

VersSource: CelesTrak SupGP

Epoch: Sep 14, 2026, 22:16 UTC

1 56709C 23067X   26257.92826389  .00026498  00000+0  95975-3 0  2577
2 56709  43.0023 282.0525 0001572 271.8453 135.9005 15.27564905    18

Volg STARLINK-30085 in realtime met AllMySat

Download on the App Store